This demonstration page uses our WeatherBlox Daily Observations layout. Learn more.

Left ArrowRight Arrow

47.50024, -111.30081

Hourly Observations for October 19, 2019

Temp ( °F °C ) Dew Point ( °F °C ) Humidity (%) Winds ( mph kmh ) Pressure ( in mb ) Visibility ( mi km ) Precip ( " mm )
12:53 am 00:53 Clear 40 4.4 23 -5 51 51 SW 14 22 29.78 1009 10 16 0.00 0.00
1:53 am 01:53 Clear 40 4.4 21 -6.1 47 47 SW 16 26 29.77 1008 10 16 0.00 0.00
2:53 am 02:53 Clear 39 3.9 22 -5.6 50 50 SW 14 22 29.79 1009 10 16 0.00 0.00
3:53 am 03:53 Clear 39 3.9 23 -5 53 53 S 12 19 29.78 1008 10 16 0.00 0.00
4:53 am 04:53 Clear 40 4.4 23 -5 51 51 SW 13 20 29.77 1008 10 16 0.00 0.00
5:53 am 05:53 Mostly Clear 41 5 21 -6.1 45 45 SW 20 31 29.75 1008 10 16 0.00 0.00
6:53 am 06:53 Partly Cloudy 42 5.6 21 -6.1 43 43 SW 20 31 29.76 1008 10 16 0.00 0.00
7:53 am 07:53 Mostly Cloudy 41 5 21 -6.1 45 45 SSW 15 24 29.74 1007 10 16 0.00 0.00
8:53 am 08:53 Cloudy 42 5.6 21 -6.1 43 43 S 18 30 29.74 1007 10 16 0.00 0.00
9:53 am 09:53 Mostly Cloudy 44 6.7 21 -6.1 40 40 SSW 15 24 29.72 1006 10 16 0.00 0.00
10:53 am 10:53 Partly Cloudy 46 7.8 21 -6.1 37 37 SSW 17 28 29.70 1006 10 16 0.00 0.00
11:53 am 11:53 Sunny 50 10 21 -6.1 32 32 SSW 13 20 29.64 1004 10 16 0.00 0.00
12:53 pm 12:53 Sunny 51 10.6 20 -6.7 29 29 SSW 12 19 29.61 1003 10 16 0.00 0.00
1:53 pm 13:53 Partly Cloudy 50 10 20 -6.7 30 30 WSW 10 17 29.58 1002 10 16 0.00 0.00
2:53 pm 14:53 Mostly Cloudy 50 10 20 -6.7 30 30 SW 7 11 29.55 1001 10 16 0.00 0.00
3:53 pm 15:53 Cloudy 49 9.4 21 -6.1 33 33 SW 12 19 29.56 1001 10 16 0.00 0.00
4:53 pm 16:53 Cloudy 48 8.9 23 -5 37 37 WSW 18 30 29.56 1001 10 16 0.00 0.00
5:53 pm 17:53 Cloudy 43 6.1 28 -2.2 56 56 SW 13 20 29.60 1002 10 16 0.00 0.00
6:53 pm 18:53 Cloudy 41 5 29 -1.7 62 62 SW 10 17 29.60 1002 10 16 0.00 0.00
7:53 pm 19:53 Cloudy 40 4.4 30 -1.1 68 68 SW 7 11 29.62 1003 10 16 0.00 0.00
8:53 pm 20:53 Cloudy 40 4.4 30 -1.1 68 68 ESE 3 6 29.65 1004 10 16 0.00 0.00
9:53 pm 21:53 Cloudy with Light Rain 39 3.9 31 -0.6 73 73 Calm 29.66 1004 10 16 0.00 0.00
10:53 pm 22:53 Mostly Cloudy 37 2.8 32 0 82 82 WSW 3 6 29.68 1005 10 16 0.00 0.00
11:53 pm 23:53 Cloudy 37 2.8 33 0.6 86 86 WNW 3 6 29.70 1006 10 16 0.00 0.00

Powered by AerisWeather